[[{"header":{"parameterUnit":"m.s-1","parameterCategory":1,"la1":30.2991,"la2":30.254,"lo1":-89.0895,"lo2":-89.0444,"dy":0.0017,"dx":0.0017,"nx":28,"ny":28,"refTime":"2024-12-31T03:00:00:Z","depth":0,"parameterNumber":2,"parameterNumberName":"U-component_of_WINDS"},"data":[0,0,0,0,0,0,0,0,0,0,0,0,0,0,0,0,0,0,0,0,0,0,0,0,0,0,0,0,0,0,0,0,0,0,0,0,0,0,0,0,0,0,0,0,0,0,0,0,0,0,0,0,0,0,0,0,0,0,-2.0012,-2.0013,0,-2.0064,-2.0065,-2.0065,-2.0021,-2.0019,-2.0017,-2.0015,-2.007,-2.0073,-2.0076,0,0,0,0,0,0,0,0,0,0,0,0,0,-1.9875,-1.9878,-2.0012,-2.0013,-2.0014,-2.0064,-2.0065,-2.0065,-2.0021,-2.0019,-2.0017,-2.0015,-2.0069,-2.0072,-2.0076,0,0,0,0,0,0,0,0,0,0,0,0,0,-1.9932,-1.9879,-2.0012,-1.9998,-1.9997,-2.0064,-2.0065,-2.0066,-2.0022,-2.0019,-2.0016,-2.0014,-2.0067,-2.0072,-2.0077,-2.0161,0,0,-2.0091,-2.0093,0,0,0,0,0,0,0,0,-1.9929,-1.9937,-1.9999,-1.9999,-1.9998,-2.0033,-2.0036,-2.0098,-2.0022,-2.0012,-2.0015,-2.0012,-2.006,-2.0065,-2.0081,-2.0164,-2.0166,-2.0091,-2.0094,-2.0096,-2.0098,0,0,0,0,0,0,0,-1.9925,-1.9934,-2.0033,-2.0,-1.9999,-1.9988,-1.9993,-2.0048,-2.0051,-2.0013,-2.001,-2.0016,-2.0059,-2.0076,-2.0082,-2.0167,-2.0091,-2.0096,-2.0098,-2.01,-2.0322,-2.0325,0,0,0,0,0,0,-1.9922,-1.9931,-2.0031,-2.0034,-1.9956,-1.9993,-1.9999,-2.0025,-2.005,-2.0051,-2.0019,-2.0014,-2.007,-2.0076,-2.0083,-2.0185,-2.0096,-2.0101,-2.0104,-2.0319,-2.0322,-2.0326,0,0,0,0,0,0,-1.9919,-1.9932,-2.0029,-1.9982,-1.9994,-1.9998,-2.0028,-2.0027,-2.0044,-2.0055,-2.0055,-2.0036,-2.0068,-2.0077,-2.0142,-2.0186,-2.0103,-2.0107,-2.0315,-2.032,-2.0324,-2.0388,0,0,0,0,0,0,-1.9916,-1.9931,-1.9963,-1.9983,-1.9996,-2.0087,-2.0031,-2.003,-2.0053,-2.0047,-2.0071,-2.0072,-2.0066,-2.0135,-2.0147,-2.0191,-2.0111,-2.0311,-2.0317,-2.0323,-2.0382,-2.0394,-2.0405,0,0,0,0,0,-1.9911,-1.9979,-1.9965,-1.9977,-2.0037,-2.009,-2.0097,-2.0089,-2.0056,-2.0089,-2.0095,-2.0071,-2.0179,-2.0142,-2.0155,-2.0201,-2.0309,-2.0316,-2.0322,-2.0377,-2.0392,-2.0404,0,0,0,0,0,0,-1.9965,-1.9982,-1.9966,-2.0043,-2.0065,-2.0082,-2.0123,-2.0105,-2.0137,-2.0131,-2.0119,-2.0124,-2.0194,-2.0203,-2.0163,-2.0285,-2.0239,-2.0248,-2.0276,-2.029,-2.0301,-2.0298,-2.0115,0,0,0,0,0,-1.9986,-2.0027,-2.0039,-2.0106,-2.0118,-2.0119,-2.0141,-2.0133,-2.0155,-2.0165,-2.0176,-2.0199,-2.0238,-2.0264,-2.0301,-2.0382,-2.0387,-2.042,-2.0432,-2.0441,-2.045,-2.0495,-2.051,-2.0348,-2.0348,-2.0348,0,0,-2.0029,-2.0043,-2.007,-2.0117,-2.0133,-2.0177,-2.0127,-2.0175,-2.0207,-2.0172,-2.0235,-2.0244,-2.0269,-2.0343,-2.0376,-2.0354,-2.0495,-2.045,-2.0457,-2.0461,-2.0503,-2.0518,-2.0532,-2.0353,-2.0352,-2.0351,0,0,-2.0131,-2.0145,-2.0203,-2.022,-2.0245,-2.0245,-2.0258,-2.0278,-2.0283,-2.0345,-2.032,-2.0358,-2.0425,-2.0444,-2.0463,-2.057,-2.055,-2.0582,-2.0642,-2.0686,-2.0698,-2.071,-2.0749,-2.0763,-2.0591,-2.0591,-2.0591,0,-2.0182,-2.0247,-2.0235,-2.0285,-2.0306,-2.0275,-2.0334,-2.0351,-2.0387,-2.0402,-2.0376,-2.046,-2.0474,-2.0553,-2.0579,-2.0594,-2.061,-2.0581,-2.0697,-2.0708,-2.0719,-2.0756,-2.0771,-2.0595,-2.0595,-2.0594,-2.0594,0,-2.0309,-2.0354,-2.0397,-2.0432,-2.0458,-2.0512,-2.0508,-2.0536,-2.0525,-2.0527,-2.0591,-2.0607,-2.0647,-2.0664,-2.0654,-2.0741,-2.0726,-2.0699,-2.0653,-2.0738,-2.0774,-2.0788,-2.0601,-2.0599,-2.0598,-2.0597,0,0,-2.0449,-2.0475,-2.0492,-2.0507,-2.0532,-2.0567,-2.0619,-2.0657,-2.0681,-2.0706,-2.075,-2.0807,-2.0782,-2.0803,-2.0794,-2.0832,-2.0917,-2.0799,-2.08,-2.0822,-2.1016,-2.1038,-2.1054,-2.0903,-2.0905,-2.0907,-2.1014,0,-2.0553,-2.0644,-2.0634,-2.0721,-2.0762,-2.0733,-2.0778,-2.0798,-2.0802,-2.0838,-2.0841,-2.0882,-2.0845,-2.0857,-2.0893,-2.0899,-2.0956,-2.0891,-2.0945,-2.0947,-2.0941,-2.1073,-2.1096,-2.1196,-2.1027,-2.103,-2.1031,0,-2.0687,-2.0717,-2.0808,-2.0826,-2.0843,-2.0884,-2.0918,-2.0952,-2.0974,-2.0974,-2.0997,-2.0981,-2.1034,-2.0985,-2.1057,-2.1013,-2.1034,-2.104,-2.1043,-2.105,-2.0996,-2.1084,-2.1228,-2.1243,-2.1053,-2.1051,-2.105,0,-2.0782,-2.0844,-2.0907,-2.0921,-2.0943,-2.0973,-2.0984,-2.1003,-2.1026,-2.1055,-2.107,-2.1105,-2.1125,-2.1152,-2.1146,-2.1111,-2.1221,-2.1171,-2.1223,-2.1223,-2.1249,-2.1248,-2.14,-2.1259,-2.1259,-2.1259,-2.1259,0,-2.09,-2.0958,-2.095,-2.0989,-2.1052,-2.1039,-2.1102,-2.1109,-2.1126,-2.1165,-2.1141,-2.1179,-2.1168,-2.1205,-2.12,-2.1261,-2.127,-2.1272,-2.127,-2.1275,-2.1275,-2.129,-2.1284,-2.1263,-2.1262,-2.1261,-2.1261,0,-2.1018,-2.1015,-2.1081,-2.1096,-2.1101,-2.1147,-2.116,-2.1197,-2.1197,-2.1248,-2.1259,-2.126,-2.1303,-2.1299,-2.1346,-2.1343,-2.1419,-2.1409,-2.1412,-2.1411,-2.1463,-2.1459,-2.1631,-2.1654,-2.1497,-2.1499,-2.15,0,-2.1095,-2.1138,-2.1158,-2.1182,-2.1195,-2.1235,-2.1258,-2.1247,-2.1273,-2.13,-2.1334,-2.1373,-2.1405,-2.1474,-2.148,-2.1516,-2.1507,-2.1565,-2.1512,-2.1516,-2.151,-2.1508,-2.1513,-2.1576,-2.1578,-2.1579,-2.158,0,-2.1232,-2.1228,-2.1263,-2.1297,-2.1326,-2.1352,-2.1376,-2.1398,-2.1389,-2.1418,-2.1461,-2.1486,-2.1534,-2.1574,-2.1608,-2.1619,-2.1599,-2.1596,-2.161,-2.1617,-2.1618,-2.1619,-2.1442,-2.1593,-2.1592,-2.1591,-2.159,-2.159,-2.1333,-2.137,-2.139,-2.1429,-2.1446,-2.1468,-2.1503,-2.1508,-2.1543,-2.1582,-2.1572,-2.1621,-2.1641,-2.1685,-2.1699,-2.1737,-2.1716,-2.1736,-2.1741,-2.1747,-2.1754,-2.161,-2.1743,-2.1742,-2.1742,-2.1742,-2.1741,0,-2.147,-2.1481,-2.1517,-2.1551,-2.1582,-2.1559,-2.1584,-2.1612,-2.1655,-2.1675,-2.1706,-2.1755,-2.1794,-2.1802,-2.1838,-2.1867,-2.1859,-2.1878,-2.1876,-2.1879,-2.177,-2.1755,-2.1884,-2.1884,-2.1884,-2.1884,-2.1884,-2.1884,-2.1546,-2.1608,-2.1606,-2.1676,-2.1686,-2.1733,-2.175,-2.177,-2.1786,-2.1842,-2.1874,-2.1879,-2.1894,-2.1931,-2.1966,-2.1967,-2.1982,-2.2005,-2.2003,-2.1901,-2.1887,-2.1873,-2.1859,-2.2008,-2.2008,-2.2109,-2.211,-2.2111]},{"header":{"parameterUnit":"m.s-1","parameterCategory":1,"la1":30.2991,"la2":30.254,"lo1":-89.0895,"lo2":-89.0444,"dy":0.0017,"dx":0.0017,"nx":28,"ny":28,"refTime":"2024-12-31T03:00:00:Z","depth":0,"parameterNumber":3,"parameterNumberName":"V-component_of_WINDS"},"data":[0,0,0,0,0,0,0,0,0,0,0,0,0,0,0,0,0,0,0,0,0,0,0,0,0,0,0,0,0,0,0,0,0,0,0,0,0,0,0,0,0,0,0,0,0,0,0,0,0,0,0,0,0,0,0,0,0,0,-5.7243,-5.7243,0,-5.7321,-5.7322,-5.7323,-5.7278,-5.7276,-5.7274,-5.7272,-5.7347,-5.7351,-5.7355,0,0,0,0,0,0,0,0,0,0,0,0,0,-5.7049,-5.7053,-5.7242,-5.7243,-5.7245,-5.7321,-5.7322,-5.7323,-5.7279,-5.7276,-5.7273,-5.7271,-5.7346,-5.735,-5.7355,0,0,0,0,0,0,0,0,0,0,0,0,0,-5.7131,-5.7054,-5.7242,-5.7232,-5.7231,-5.7321,-5.7322,-5.7323,-5.7279,-5.7276,-5.7273,-5.727,-5.7344,-5.735,-5.7356,-5.7459,0,0,-5.7374,-5.7377,0,0,0,0,0,0,0,0,-5.7126,-5.7138,-5.7232,-5.7233,-5.7233,-5.7287,-5.7281,-5.7369,-5.728,-5.7261,-5.7272,-5.7268,-5.7329,-5.7336,-5.7358,-5.7462,-5.7465,-5.7375,-5.7379,-5.7381,-5.7383,0,0,0,0,0,0,0,-5.712,-5.7134,-5.7273,-5.7234,-5.7234,-5.7221,-5.7229,-5.7298,-5.7312,-5.7262,-5.7259,-5.7269,-5.7329,-5.7352,-5.7359,-5.7466,-5.7375,-5.738,-5.7384,-5.7386,-5.7658,-5.7662,0,0,0,0,0,0,-5.7116,-5.713,-5.7271,-5.7276,-5.717,-5.7227,-5.7236,-5.7272,-5.7311,-5.7314,-5.7272,-5.7267,-5.7344,-5.7352,-5.7362,-5.7485,-5.7381,-5.7387,-5.739,-5.7655,-5.7659,-5.7663,0,0,0,0,0,0,-5.7112,-5.7129,-5.7268,-5.7202,-5.7219,-5.7234,-5.7275,-5.7276,-5.7299,-5.7319,-5.7321,-5.7294,-5.7341,-5.7353,-5.7435,-5.7487,-5.739,-5.7395,-5.765,-5.7656,-5.7661,-5.7731,0,0,0,0,0,0,-5.7107,-5.7128,-5.7169,-5.7203,-5.7222,-5.7342,-5.7278,-5.728,-5.7311,-5.7305,-5.734,-5.7343,-5.734,-5.7426,-5.7441,-5.7493,-5.74,-5.7646,-5.7653,-5.7659,-5.7724,-5.7738,-5.775,0,0,0,0,0,-5.71,-5.7184,-5.7171,-5.7188,-5.7274,-5.7345,-5.7355,-5.7352,-5.7315,-5.7355,-5.7367,-5.7341,-5.7479,-5.7435,-5.7451,-5.7506,-5.7643,-5.7651,-5.7659,-5.7719,-5.7736,-5.775,0,0,0,0,0,0,-5.7153,-5.7188,-5.7174,-5.7272,-5.7306,-5.7337,-5.7387,-5.737,-5.7414,-5.7406,-5.7398,-5.7406,-5.7492,-5.7507,-5.7458,-5.7607,-5.7555,-5.7566,-5.7595,-5.7611,-5.7624,-5.7618,-5.7405,0,0,0,0,0,-5.7177,-5.7233,-5.726,-5.7344,-5.7362,-5.7372,-5.7403,-5.7397,-5.7431,-5.7445,-5.7463,-5.7495,-5.7546,-5.7579,-5.7626,-5.7726,-5.7733,-5.7772,-5.7785,-5.7795,-5.7805,-5.7859,-5.7877,-5.7689,-5.7689,-5.7689,0,0,-5.7225,-5.7251,-5.7287,-5.7355,-5.7381,-5.7438,-5.7384,-5.7447,-5.7489,-5.7453,-5.7533,-5.7547,-5.7582,-5.7674,-5.7715,-5.7689,-5.7859,-5.7805,-5.7814,-5.7818,-5.7869,-5.7887,-5.7903,-5.7695,-5.7694,-5.7693,0,0,-5.7343,-5.7368,-5.7441,-5.7468,-5.7508,-5.7515,-5.7532,-5.7566,-5.7575,-5.7654,-5.7629,-5.7678,-5.7765,-5.7791,-5.7816,-5.7944,-5.7921,-5.7959,-5.8027,-5.8079,-5.8094,-5.8107,-5.8152,-5.8169,-5.7969,-5.7969,-5.7969,0,-5.7397,-5.7484,-5.748,-5.7546,-5.7576,-5.7549,-5.7622,-5.7647,-5.77,-5.7721,-5.7691,-5.78,-5.7822,-5.7919,-5.795,-5.7971,-5.799,-5.7955,-5.8092,-5.8105,-5.8118,-5.8161,-5.8178,-5.7974,-5.7973,-5.7973,-5.7972,0,-5.755,-5.761,-5.7664,-5.7718,-5.7754,-5.7823,-5.7828,-5.7864,-5.7856,-5.7864,-5.7945,-5.797,-5.8022,-5.8045,-5.8036,-5.8141,-5.8123,-5.8094,-5.804,-5.814,-5.818,-5.8197,-5.798,-5.7978,-5.7977,-5.7976,0,0,-5.7703,-5.7755,-5.7774,-5.7798,-5.784,-5.7886,-5.7953,-5.8006,-5.8037,-5.8074,-5.8129,-5.8203,-5.8176,-5.8204,-5.8198,-5.8244,-5.8343,-5.8208,-5.8209,-5.8233,-5.846,-5.8483,-5.8502,-5.8329,-5.8332,-5.8334,-5.8457,0,-5.7824,-5.7943,-5.7941,-5.8051,-5.8107,-5.8081,-5.8139,-5.817,-5.818,-5.8227,-5.8236,-5.8289,-5.8249,-5.8266,-5.831,-5.8322,-5.8389,-5.8313,-5.8379,-5.8381,-5.8371,-5.8523,-5.8547,-5.8662,-5.8473,-5.8475,-5.8477,0,-5.7981,-5.8025,-5.8141,-5.8175,-5.8198,-5.8251,-5.8299,-5.8344,-5.8378,-5.8382,-5.8414,-5.8401,-5.8467,-5.8412,-5.8502,-5.845,-5.8477,-5.8486,-5.8491,-5.8497,-5.8436,-5.8533,-5.8698,-5.8716,-5.8502,-5.85,-5.8498,0,-5.8082,-5.817,-5.8251,-5.8272,-5.8314,-5.8351,-5.837,-5.8401,-5.8433,-5.8474,-5.8494,-5.8542,-5.8568,-5.8604,-5.8603,-5.8563,-5.8695,-5.8639,-5.8698,-5.8699,-5.8728,-5.8726,-5.8899,-5.8744,-5.8744,-5.8744,-5.8743,0,-5.8217,-5.8289,-5.8297,-5.8347,-5.8426,-5.8422,-5.85,-5.8515,-5.8543,-5.8593,-5.8573,-5.8621,-5.8617,-5.8664,-5.8664,-5.8738,-5.875,-5.8754,-5.8753,-5.8756,-5.8756,-5.8774,-5.8766,-5.8748,-5.8747,-5.8746,-5.8746,0,-5.8343,-5.8352,-5.8438,-5.8471,-5.8481,-5.8538,-5.8564,-5.8611,-5.8619,-5.8683,-5.8698,-5.871,-5.8765,-5.8768,-5.8831,-5.883,-5.8921,-5.8911,-5.891,-5.8909,-5.8968,-5.8962,-5.9159,-5.9184,-5.9013,-5.9014,-5.9016,0,-5.8429,-5.8484,-5.8523,-5.8557,-5.8579,-5.8633,-5.8665,-5.8663,-5.8698,-5.8741,-5.8782,-5.8835,-5.8878,-5.8967,-5.898,-5.9028,-5.9019,-5.9084,-5.9026,-5.9027,-5.902,-5.9017,-5.9022,-5.9096,-5.9098,-5.9099,-5.9101,0,-5.8581,-5.8582,-5.8632,-5.8683,-5.8723,-5.8762,-5.8798,-5.8827,-5.8829,-5.8868,-5.8925,-5.8959,-5.9024,-5.9077,-5.9123,-5.914,-5.9121,-5.9119,-5.9135,-5.9139,-5.9137,-5.9139,-5.8942,-5.9114,-5.9113,-5.9112,-5.9111,-5.9111,-5.869,-5.8738,-5.8773,-5.8828,-5.8856,-5.8891,-5.8936,-5.895,-5.8998,-5.9053,-5.9048,-5.9111,-5.9142,-5.9203,-5.9224,-5.9272,-5.9249,-5.9273,-5.9279,-5.9285,-5.9291,-5.9129,-5.928,-5.928,-5.928,-5.9279,-5.9279,0,-5.8841,-5.8862,-5.8913,-5.8966,-5.9009,-5.8989,-5.9028,-5.9065,-5.9122,-5.9154,-5.9197,-5.9262,-5.9313,-5.933,-5.938,-5.9415,-5.9407,-5.9428,-5.9425,-5.9429,-5.9309,-5.929,-5.9433,-5.9433,-5.9433,-5.9433,-5.9433,-5.9433,-5.8925,-5.9005,-5.901,-5.9103,-5.9123,-5.9187,-5.9211,-5.9242,-5.9268,-5.9342,-5.9386,-5.9397,-5.9423,-5.9474,-5.9519,-5.9523,-5.9542,-5.9567,-5.9567,-5.9453,-5.9438,-5.9423,-5.9405,-5.9571,-5.9571,-5.9683,-5.9684,-5.9685]}]]